Flag for Argentina Weather past 2 weeks in Río Gallegos, Santa Cruz, Argentina

Now
50 °F

Passing clouds.


Feels Like: 42 °F
Forecast: 44 / 58 °F
Wind: 29 mph from West

Location: Rio Gallegos Aerodrome

Current Time: Oct 23, 2014 at 9:50:04 AM

Latest Report: Oct 23, 2014 at 9:00 AM


Visibility: N/A

Pressure: 29.86 "Hg

Humidity: 50%

Dew point: 32 °F

Location of Río GallegosLocation

Historic Weather in Río Gallegos — Graph

°F

Río Gallegos temperature yesterday

Maximum temperature yesterday: 57 °F (at 3:00 PM)
Minimum temperature yesterday: 39 °F (at 6:00 AM)
Average temperature yesterday: 49 °F

Past Weeks' High & Low Weather Summary

 TemperatureHumidityPressure
High63 °F (Oct 16, 3:00 PM)100% (Oct 13, 3:00 AM)29.98 "Hg (Oct 13, 3:00 AM)
Low25 °F (Oct 18, 5:00 AM)20% (Oct 10, 2:00 PM)29.06 "Hg (Oct 12, 2:00 PM)
Average46 °F57%29.60 "Hg
* Reported Oct 8 8:00 AM — Oct 23 8:00 AM, Río Gallegos, Weather by CustomWeather, © 2014

Note: Actual official high and low records may vary slightly from our data, if they occured in-between our weather recording intervals... More about our weather records

Advertising

Río Gallegos weather history for previous 24 hours

 ConditionsComfort  
Time TempWeatherWind HumidityBarometerVisibility
8:00 AM
Oct 23
46 °FPassing clouds.25 mph62%29.80 "HgN/A
7:00 AM45 °FPassing clouds.23 mph61%29.80 "HgN/A
6:00 AM46 °FPassing clouds.28 mph57%29.74 "HgN/A
5:00 AM46 °FClear.29 mph43%29.71 "Hg10 mi
4:00 AM48 °FPassing clouds.26 mph43%29.71 "HgN/A
3:00 AM50 °FPassing clouds.32 mph40%29.71 "HgN/A
2:00 AM48 °FPassing clouds.24 mph43%29.71 "HgN/A
1:00 AM48 °FPassing clouds.21 mph43%29.71 "HgN/A
12:00 AM46 °FClear.15 mph46%29.74 "Hg10 mi
11:00 PM
Oct 22
46 °FClear.17 mph50%29.74 "Hg10 mi
10:00 PM48 °FClear.13 mph46%29.77 "Hg10 mi
9:00 PM48 °FClear.14 mph43%29.77 "Hg10 mi
8:00 PM52 °FClear.18 mph38%29.74 "Hg10 mi
7:00 PM55 °FSunny.25 mph31%29.74 "Hg10 mi
5:00 PM57 °FPassing clouds.26 mph25%29.71 "HgN/A
4:00 PM57 °FRefreshingly cool.25 mph25%29.71 "HgN/A
3:00 PM57 °FScattered clouds.26 mph25%29.74 "HgN/A
2:00 PM55 °FPassing clouds.25 mph26%29.71 "HgN/A
1:00 PM54 °FPassing clouds.24 mph28%29.74 "HgN/A
12:00 PM52 °FPassing clouds.23 mph30%29.74 "HgN/A
11:00 AM50 °FSunny.22 mph32%29.74 "Hg10 mi
10:00 AM48 °FSunny.22 mph32%29.74 "Hg10 mi
9:00 AM45 °FPassing clouds.22 mph49%29.71 "HgN/A
Weather by CustomWeather, © 2014

See weather overviewHow to use our weather pages